When you browse on this site, cookies collect data to enhance your experience and personalize the content and advertising you see.
Visit our Privacy Policy to learn more. By continuing to use the site, you agree to this use of cookies and data.

Tiempo cada hora Ashton-under-Lyne

Hoy, 8 Agosto, Sábado

Tiempo Temperatura Precipitaciones Viento Presión Humedad
00:00 +18°C° 0 mm 2 mps 754 mmHg 85%
01:00 +19°C° 0 mm 1 mps 754 mmHg 86%
02:00 +19°C° 0 mm 1 mps 754 mmHg 87%
03:00 +18°C° 0 mm 1 mps 754 mmHg 88%
04:00 +18°C° 0 mm 1 mps 755 mmHg 88%
05:00 +19°C° 0 mm 1 mps 755 mmHg 88%
06:00 +19°C° 0 mm 1 mps 755 mmHg 88%
07:00 +19°C° 0 mm 2 mps 755 mmHg 82%
08:00 +21°C° 0 mm 2 mps 756 mmHg 76%
09:00 +23°C° 0 mm 2 mps 756 mmHg 70%
10:00 +24°C° 0 mm 3 mps 756 mmHg 66%
11:00 +25°C° 0 mm 3 mps 756 mmHg 63%
12:00 +26°C° 0 mm 3 mps 756 mmHg 59%
13:00 +26°C° 0 mm 3 mps 756 mmHg 59%
14:00 +26°C° 0 mm 4 mps 756 mmHg 58%
15:00 +26°C° 0 mm 4 mps 756 mmHg 58%
16:00 +25°C° 0 mm 4 mps 756 mmHg 61%
17:00 +22°C° 0 mm 5 mps 756 mmHg 63%
18:00 +21°C° 0 mm 5 mps 755 mmHg 66%
19:00 +20°C° 0 mm 5 mps 756 mmHg 69%
20:00 +19°C° 0 mm 5 mps 756 mmHg 73%
21:00 +16°C° 0 mm 5 mps 756 mmHg 76%
22:00 +17°C° 0 mm 4 mps 756 mmHg 79%
23:00 +15°C° 0 mm 4 mps 756 mmHg 82%

Mañana, 9 Agosto, Domingo

Tiempo Temperatura Precipitaciones Viento Presión Humedad
00:00 +14°C° 0 mm 4 mps 756 mmHg 85%
01:00 +14°C° 0.1 mm 4 mps 756 mmHg 86%
02:00 +14°C° 0.1 mm 4 mps 755 mmHg 87%
03:00 +14°C° 0.1 mm 4 mps 755 mmHg 89%
04:00 +15°C° 0 mm 4 mps 755 mmHg 89%
05:00 +15°C° 0 mm 4 mps 755 mmHg 89%
06:00 +15°C° 0 mm 4 mps 754 mmHg 88%
07:00 +17°C° 0 mm 4 mps 754 mmHg 87%
08:00 +16°C° 0 mm 5 mps 754 mmHg 86%
09:00 +17°C° 0 mm 5 mps 754 mmHg 84%
10:00 +19°C° 0 mm 5 mps 754 mmHg 81%
11:00 +20°C° 0 mm 5 mps 754 mmHg 79%
12:00 +21°C° 0 mm 5 mps 754 mmHg 76%
13:00 +21°C° 0 mm 5 mps 753 mmHg 75%
14:00 +21°C° 0 mm 5 mps 753 mmHg 75%
15:00 +22°C° 0 mm 5 mps 752 mmHg 74%
16:00 +22°C° 0 mm 5 mps 752 mmHg 76%
17:00 +21°C° 0 mm 5 mps 752 mmHg 78%
18:00 +21°C° 0 mm 5 mps 752 mmHg 79%
19:00 +20°C° 0.3 mm 4 mps 752 mmHg 82%
20:00 +19°C° 0.3 mm 4 mps 752 mmHg 85%
21:00 +18°C° 0.3 mm 4 mps 752 mmHg 88%
22:00 +18°C° 0.3 mm 3 mps 752 mmHg 89%
23:00 +17°C° 0.3 mm 3 mps 752 mmHg 90%

Pasado mañana, 10 Agosto, Lunes

Tiempo Temperatura Precipitaciones Viento Presión Humedad
00:00 +17°C° 0.3 mm 3 mps 751 mmHg 90%
01:00 +17°C° 0.7 mm 3 mps 751 mmHg 91%
02:00 +17°C° 0.7 mm 3 mps 751 mmHg 91%
03:00 +17°C° 0.7 mm 3 mps 751 mmHg 91%
04:00 +17°C° 0.1 mm 3 mps 750 mmHg 91%
05:00 +17°C° 0.1 mm 2 mps 750 mmHg 91%
06:00 +17°C° 0.1 mm 2 mps 750 mmHg 90%
07:00 +18°C° 0.3 mm 2 mps 750 mmHg 89%
08:00 +18°C° 0.3 mm 2 mps 750 mmHg 87%
09:00 +20°C° 0.3 mm 1 mps 750 mmHg 85%
10:00 +21°C° 0.2 mm 1 mps 750 mmHg 82%
11:00 +22°C° 0.2 mm 1 mps 750 mmHg 80%
12:00 +23°C° 0.2 mm 1 mps 750 mmHg 77%
13:00 +24°C° 0 mm 1 mps 750 mmHg 74%
14:00 +25°C° 0 mm 1 mps 750 mmHg 72%
15:00 +25°C° 0 mm 1 mps 750 mmHg 69%
16:00 +25°C° 0 mm 2 mps 750 mmHg 72%
17:00 +24°C° 0 mm 2 mps 750 mmHg 75%
18:00 +24°C° 0 mm 2 mps 750 mmHg 78%
19:00 +21°C° 0 mm 2 mps 750 mmHg 82%
20:00 +20°C° 0 mm 2 mps 750 mmHg 86%
21:00 +20°C° 0 mm 1 mps 751 mmHg 90%
22:00 +19°C° 0 mm 1 mps 751 mmHg 90%
23:00 +19°C° 0 mm 1 mps 751 mmHg 91%

11 Agosto, Martes

Tiempo Temperatura Precipitaciones Viento Presión Humedad
00:00 +18°C° 0 mm 1 mps 751 mmHg 92%
01:00 +18°C° 0 mm 1 mps 751 mmHg 93%
02:00 +18°C° 0 mm 1 mps 751 mmHg 93%
03:00 +18°C° 0 mm 1 mps 751 mmHg 94%
04:00 +18°C° 0 mm 1 mps 751 mmHg 93%
05:00 +18°C° 0 mm 1 mps 751 mmHg 92%
06:00 +18°C° 0 mm 1 mps 751 mmHg 91%
07:00 +19°C° 0 mm 1 mps 751 mmHg 87%
08:00 +20°C° 0 mm 1 mps 752 mmHg 83%
09:00 +20°C° 0 mm 2 mps 752 mmHg 79%
10:00 +21°C° 0.1 mm 2 mps 752 mmHg 75%
11:00 +24°C° 0.1 mm 2 mps 752 mmHg 71%
12:00 +25°C° 0.1 mm 2 mps 752 mmHg 67%
13:00 +25°C° 0.7 mm 2 mps 752 mmHg 69%
14:00 +24°C° 0.7 mm 2 mps 751 mmHg 71%
15:00 +24°C° 0.7 mm 2 mps 751 mmHg 73%
16:00 +24°C° 0.4 mm 2 mps 751 mmHg 75%
17:00 +24°C° 0.4 mm 2 mps 751 mmHg 77%
18:00 +23°C° 0.4 mm 2 mps 751 mmHg 79%
19:00 +23°C° 0.1 mm 2 mps 751 mmHg 82%
20:00 +21°C° 0.1 mm 2 mps 751 mmHg 85%
21:00 +20°C° 0.1 mm 2 mps 751 mmHg 88%
22:00 +19°C° 0.1 mm 2 mps 751 mmHg 88%
23:00 +19°C° 0.1 mm 2 mps 751 mmHg 89%

12 Agosto, Miércoles

Tiempo Temperatura Precipitaciones Viento Presión Humedad
00:00 +19°C° 0.1 mm 2 mps 751 mmHg 90%
01:00 +19°C° 0 mm 1 mps 751 mmHg 90%
02:00 +19°C° 0 mm 1 mps 750 mmHg 91%
03:00 +18°C° 0 mm 1 mps 750 mmHg 91%
04:00 +18°C° 0 mm 1 mps 750 mmHg 91%
05:00 +19°C° 0 mm 1 mps 750 mmHg 90%
06:00 +19°C° 0 mm 1 mps 749 mmHg 90%
07:00 +19°C° 0.1 mm 1 mps 749 mmHg 87%
08:00 +20°C° 0.1 mm 1 mps 749 mmHg 85%
09:00 +21°C° 0.1 mm 1 mps 749 mmHg 82%
10:00 +22°C° 0.3 mm 1 mps 749 mmHg 81%
11:00 +21°C° 0.3 mm 2 mps 749 mmHg 80%
12:00 +23°C° 0.3 mm 2 mps 749 mmHg 79%
13:00 +21°C° 1 mm 2 mps 749 mmHg 83%
14:00 +21°C° 1 mm 2 mps 748 mmHg 86%
15:00 +21°C° 1 mm 1 mps 748 mmHg 90%
16:00 +20°C° 0.4 mm 2 mps 748 mmHg 91%
17:00 +19°C° 0.4 mm 2 mps 748 mmHg 92%
18:00 +19°C° 0.4 mm 2 mps 747 mmHg 93%
19:00 +19°C° 0.3 mm 2 mps 747 mmHg 93%
20:00 +19°C° 0.3 mm 2 mps 747 mmHg 93%
21:00 +18°C° 0.3 mm 2 mps 747 mmHg 93%
22:00 +18°C° 0.4 mm 2 mps 747 mmHg 93%
23:00 +18°C° 0.4 mm 2 mps 746 mmHg 94%

13 Agosto, Jueves

Tiempo Temperatura Precipitaciones Viento Presión Humedad
00:00 +18°C° 0.4 mm 2 mps 746 mmHg 94%
01:00 +18°C° 0.9 mm 2 mps 745 mmHg 94%
02:00 +18°C° 0.9 mm 2 mps 745 mmHg 95%
03:00 +18°C° 0.9 mm 2 mps 744 mmHg 95%
04:00 +18°C° 1.3 mm 2 mps 744 mmHg 95%
05:00 +18°C° 1.3 mm 2 mps 744 mmHg 95%
06:00 +18°C° 1.3 mm 2 mps 743 mmHg 95%
07:00 +19°C° 0.1 mm 3 mps 743 mmHg 93%
08:00 +19°C° 0.1 mm 3 mps 743 mmHg 91%
09:00 +19°C° 0.1 mm 4 mps 743 mmHg 89%
10:00 +19°C° 0.3 mm 4 mps 743 mmHg 88%
11:00 +19°C° 0.3 mm 4 mps 743 mmHg 87%
12:00 +19°C° 0.3 mm 4 mps 744 mmHg 86%
13:00 +19°C° 0.5 mm 3 mps 744 mmHg 87%
14:00 +18°C° 0.5 mm 3 mps 744 mmHg 87%
15:00 +18°C° 0.5 mm 3 mps 744 mmHg 87%
16:00 +18°C° 0.2 mm 3 mps 744 mmHg 88%
17:00 +17°C° 0.2 mm 3 mps 745 mmHg 88%
18:00 +17°C° 0.2 mm 3 mps 745 mmHg 89%
19:00 +17°C° 0.4 mm 3 mps 746 mmHg 89%
20:00 +16°C° 0.4 mm 3 mps 746 mmHg 89%
21:00 +16°C° 0.4 mm 3 mps 747 mmHg 89%
22:00 +16°C° 0.1 mm 3 mps 747 mmHg 89%
23:00 +14°C° 0.1 mm 3 mps 748 mmHg 89%
Mostrar más